Louisburg, NC

7:04 PM EST on February 06, 2016 (GMT -0500)
Franklin County

Weather History for KLHZ - November, 2012

Change the Weather History Date:

Sunday, November 4, 2012

  Actual Average (KRDU) Record (KRDU)
Temperature  
Mean Temperature 44 °F 56 °F  
Max Temperature 50 °F 68 °F 84 °F (1946)
Min Temperature 37 °F 44 °F 25 °F (1966)
Degree Days  
Heating Degree Days 22 10  
Month to date heating degree days 38  
Since 1 July heating degree days 227  
Cooling Degree Days 0 0  
Month to date cooling degree days 1  
Year to date cooling degree days 1721  
Moisture  
Dew Point 38 °F    
Average Humidity 79    
Maximum Humidity 100    
Minimum Humidity 62    
Precipitation  
Precipitation 0.00 in 0.11 in 2.47 in (1904)
Month to date precipitation 0.43  
Year to date precipitation 37.58  
Sea Level Pressure  
Sea Level Pressure 30.04 in    
Wind  
Wind Speed 3 mph (NE)    
Max Wind Speed 10 mph    
Max Gust Speed -    
Visibility 10 miles    
Events      
T = Trace of Precipitation, MM = Missing Value Source: NWS Daily Summary

Daily Weather History Graph

Daily Weather History Graph

Search for Another Location

Airport or City:

Trip Planner

Search our weather history database for the weather conditions in past years. The results will help you decide how hot, cold, wet, or windy it might be!

Date:

Astronomy

Nov. 04, 2012 Rise Set
Actual Time 6:39 AM EST 5:14 PM EST
Civil Twilight 6:12 AM EST 5:40 PM EST
Nautical Twilight 5:42 AM EST 6:11 PM EST
Astronomical Twilight 5:12 AM EST 6:41 PM EST
Moon 9:51 PM EST (11/4) 11:19 AM EST (11/4)
Length of Visible Light 11h 28m
Length of Day
10h 34m
Waning Gibbous, 72% of the Moon is Illuminated
Nov 4
Waning Gibbous
Nov 6
Last Quarter
Nov 13
New
Nov 20
First Quarter
Nov 28
Full

Hourly Weather History & Observations

Time (EST) Temp. Windchill Dew Point Humidity Pressure Visibility Wind Dir Wind Speed Gust Speed Precip Events Conditions
12:15 AM 41.0 °F - 39.2 °F 93% 30.10 in 10.0 mi Calm Calm - N/A   Overcast
12:35 AM 41.0 °F - 37.4 °F 87% 30.10 in 10.0 mi Calm Calm - N/A   Mostly Cloudy
12:55 AM 37.4 °F - 37.4 °F 100% 30.09 in 10.0 mi Calm Calm - N/A   Scattered Clouds
1:15 AM 37.4 °F - 37.4 °F 100% 30.09 in 10.0 mi Calm Calm - N/A   Scattered Clouds
1:35 AM - - - N/A% 30.08 in 10.0 mi Calm Calm - N/A   Scattered Clouds
1:55 AM 41.0 °F 38.0 °F 37.4 °F 87% 30.06 in 10.0 mi South 4.6 mph - N/A   Scattered Clouds
1:15 AM 42.8 °F - 37.4 °F 81% 30.08 in 10.0 mi Calm Calm - N/A   Mostly Cloudy
1:35 AM 42.8 °F - 37.4 °F 81% 30.09 in 10.0 mi Calm Calm - N/A   Overcast
1:55 AM 42.8 °F 41.1 °F 39.2 °F 87% 30.09 in 10.0 mi NNE 3.5 mph - N/A   Overcast
2:15 AM 42.8 °F 39.3 °F 37.4 °F 81% 30.09 in 10.0 mi NNE 5.8 mph - N/A   Scattered Clouds
2:35 AM 42.8 °F 38.6 °F 35.6 °F 76% 30.07 in 10.0 mi ENE 6.9 mph - N/A   Scattered Clouds
2:55 AM 42.8 °F 40.1 °F 35.6 °F 76% 30.06 in 10.0 mi East 4.6 mph - N/A   Scattered Clouds
3:15 AM 42.8 °F 40.1 °F 35.6 °F 76% 30.07 in 10.0 mi ENE 4.6 mph - N/A   Mostly Cloudy
3:35 AM 42.8 °F - 35.6 °F 76% 30.10 in 10.0 mi Calm Calm - N/A   Mostly Cloudy
3:55 AM 42.8 °F 41.1 °F 35.6 °F 76% 30.08 in 10.0 mi East 3.5 mph - N/A   Light Drizzle
4:15 AM 42.8 °F 41.1 °F 35.6 °F 76% 30.08 in 10.0 mi NE 3.5 mph - N/A   Light Drizzle
4:35 AM 41.0 °F 38.0 °F 37.4 °F 87% 30.07 in 10.0 mi NE 4.6 mph - N/A   Mostly Cloudy
4:55 AM 41.0 °F 38.0 °F 37.4 °F 87% 30.08 in 10.0 mi NE 4.6 mph - N/A   Overcast
5:15 AM 41.0 °F 37.1 °F 37.4 °F 87% 30.08 in 10.0 mi ENE 5.8 mph - N/A   Overcast
5:35 AM 41.0 °F 37.1 °F 37.4 °F 87% 30.07 in 10.0 mi NE 5.8 mph - N/A   Overcast
5:55 AM 41.0 °F 37.1 °F 35.6 °F 81% 30.06 in 10.0 mi ENE 5.8 mph - N/A   Overcast
6:15 AM 41.0 °F 39.0 °F 35.6 °F 81% 30.06 in 10.0 mi ENE 3.5 mph - N/A   Overcast
6:35 AM 41.0 °F 36.4 °F 35.6 °F 81% 30.07 in 10.0 mi NE 6.9 mph - N/A   Overcast
6:55 AM 41.0 °F 37.1 °F 35.6 °F 81% 30.07 in 10.0 mi ENE 5.8 mph - N/A   Scattered Clouds
7:15 AM 41.0 °F 37.1 °F 35.6 °F 81% 30.07 in 10.0 mi NE 5.8 mph - N/A   Clear
7:35 AM 41.0 °F 37.1 °F 35.6 °F 81% 30.07 in 10.0 mi NE 5.8 mph - N/A   Clear
7:55 AM 42.8 °F 38.6 °F 37.4 °F 81% 30.07 in 10.0 mi NE 6.9 mph - N/A   Mostly Cloudy
8:15 AM 42.8 °F 38.0 °F 35.6 °F 76% 30.07 in 10.0 mi NE 8.1 mph - N/A   Overcast
8:35 AM 42.8 °F 38.0 °F 35.6 °F 76% 30.07 in 10.0 mi NE 8.1 mph - N/A   Overcast
8:55 AM 44.6 °F 40.2 °F 35.6 °F 71% 30.07 in 10.0 mi ENE 8.1 mph - N/A   Overcast
9:15 AM 44.6 °F 39.7 °F 35.6 °F 71% 30.06 in 10.0 mi ENE 9.2 mph - N/A   Overcast
9:35 AM 44.6 °F 39.7 °F 35.6 °F 71% 30.06 in 10.0 mi ENE 9.2 mph - N/A   Overcast
9:55 AM 46.4 °F 43.5 °F 35.6 °F 66% 30.06 in 10.0 mi NE 5.8 mph - N/A   Overcast
10:15 AM 46.4 °F 42.4 °F 37.4 °F 71% 30.05 in 10.0 mi NE 8.1 mph - N/A   Overcast
10:35 AM 48.2 °F - 37.4 °F 66% 30.04 in 10.0 mi NE 10.4 mph - N/A   Overcast
10:55 AM 48.2 °F - 35.6 °F 62% 30.05 in 10.0 mi NE 8.1 mph - N/A   Overcast
11:15 AM 48.2 °F - 35.6 °F 62% 30.05 in 10.0 mi NNE 8.1 mph - N/A   Overcast
11:35 AM 50.0 °F - 37.4 °F 62% 30.04 in 10.0 mi NE 8.1 mph - N/A   Overcast
11:55 AM 50.0 °F - 37.4 °F 62% 30.03 in 10.0 mi NE 8.1 mph - N/A   Overcast
12:15 PM 50.0 °F - 37.4 °F 62% 30.03 in 10.0 mi NNE 8.1 mph - N/A   Overcast
12:35 PM 50.0 °F - 37.4 °F 62% 30.02 in 10.0 mi NE 8.1 mph - N/A   Overcast
12:55 PM 50.0 °F - 37.4 °F 62% 30.02 in 10.0 mi NE 4.6 mph - N/A   Overcast
1:15 PM 50.0 °F - 37.4 °F 62% 30.01 in 10.0 mi NE 4.6 mph - N/A   Overcast
1:35 PM 50.0 °F - 37.4 °F 62% 30.00 in 10.0 mi NNE 4.6 mph - N/A   Overcast
1:55 PM 50.0 °F - 37.4 °F 62% 30.00 in 10.0 mi ENE 5.8 mph - N/A   Overcast
2:15 PM 50.0 °F - 37.4 °F 62% 29.99 in 10.0 mi NNE 4.6 mph - N/A   Overcast
2:35 PM 50.0 °F - 37.4 °F 62% 30.00 in 10.0 mi North 5.8 mph - N/A   Overcast
2:55 PM 50.0 °F - 37.4 °F 62% 30.00 in 10.0 mi ENE 5.8 mph - N/A   Overcast
3:15 PM 50.0 °F - 37.4 °F 62% 30.00 in 10.0 mi ENE 5.8 mph - N/A   Mostly Cloudy
3:35 PM 50.0 °F - 37.4 °F 62% 30.00 in 10.0 mi NNE 3.5 mph - N/A   Mostly Cloudy
3:55 PM 50.0 °F - 37.4 °F 62% 30.00 in 10.0 mi North 4.6 mph - N/A   Mostly Cloudy
4:15 PM 50.0 °F - 37.4 °F 62% 30.00 in 10.0 mi North 4.6 mph - N/A   Scattered Clouds
4:35 PM 50.0 °F - 37.4 °F 62% 30.01 in 10.0 mi Calm Calm - N/A   Scattered Clouds
4:55 PM 50.0 °F - 37.4 °F 62% 30.00 in 10.0 mi Calm Calm - N/A   Scattered Clouds
5:15 PM 46.4 °F - 39.2 °F 76% 30.00 in 10.0 mi Calm Calm - N/A   Scattered Clouds
5:35 PM 46.4 °F - 41.0 °F 81% 30.01 in 10.0 mi Calm Calm - N/A   Clear
5:55 PM 44.6 °F - 41.0 °F 87% 30.00 in 10.0 mi Calm Calm - N/A   Clear
6:15 PM 44.6 °F - 41.0 °F 87% 30.01 in 10.0 mi Calm Calm - N/A   Scattered Clouds
6:35 PM 44.6 °F - 42.8 °F 93% 30.02 in 10.0 mi Calm Calm - N/A   Mostly Cloudy
6:55 PM 44.6 °F - 42.8 °F 93% 30.02 in 10.0 mi Calm Calm - N/A   Mostly Cloudy
7:15 PM 42.8 °F - 42.8 °F 100% 30.02 in 10.0 mi Calm Calm - N/A   Mostly Cloudy
7:35 PM 44.6 °F - 42.8 °F 93% 30.02 in 10.0 mi Calm Calm - N/A   Overcast
7:55 PM 44.6 °F - 42.8 °F 93% 30.01 in 10.0 mi Calm Calm - N/A   Mostly Cloudy
8:15 PM 44.6 °F - 42.8 °F 93% 30.01 in 10.0 mi Calm Calm - N/A   Scattered Clouds
8:35 PM 44.6 °F - 44.6 °F 100% 30.02 in 10.0 mi Calm Calm - N/A   Mostly Cloudy
8:55 PM 44.6 °F - 44.6 °F 100% 30.03 in 10.0 mi Calm Calm - N/A   Overcast
9:15 PM 44.6 °F - 42.8 °F 93% 30.03 in 10.0 mi Calm Calm - N/A   Overcast
9:35 PM 44.6 °F - 42.8 °F 93% 30.02 in 10.0 mi Calm Calm - N/A   Overcast
9:55 PM 44.6 °F - 44.6 °F 100% 30.03 in 10.0 mi Calm Calm - N/A   Overcast
10:15 PM 44.6 °F - 44.6 °F 100% 30.03 in 10.0 mi Calm Calm - N/A   Overcast
10:35 PM 44.6 °F - 44.6 °F 100% 30.02 in 10.0 mi Calm Calm - N/A   Overcast
10:55 PM 44.6 °F - 42.8 °F 93% 30.02 in 10.0 mi Calm Calm - N/A   Overcast